Saint Bonnet de Bellac- Haute Vienne - France
Donnes mto: mercredi, 18/04/2012
Date Horaire Temp. E. Hum. E. P.atmo. Pluie Vent Direction Direction Ensoleilleme Solaire P. de rose Temp au vent Rafales
18/04/2012 00:00 5,6 C 91 % 1006,2 hPa 0,0 mm 5,8 km/h (2 Bft) SO 225 0 min 0 W/m 4,2 C 4,5 C 8,3 km/h (2 Bft)
18/04/2012 00:10 5,6 C 91 % 1006,1 hPa 0,0 mm 9,4 km/h (2 Bft) S-SO 202 0 min 0 W/m 4,2 C 3,5 C 9,4 km/h (2 Bft)
18/04/2012 00:20 5,5 C 91 % 1005,9 hPa 0,0 mm 6,1 km/h (2 Bft) S-SO 202 0 min 0 W/m 4,2 C 4,3 C 8,3 km/h (2 Bft)
18/04/2012 00:30 5,5 C 91 % 1005,7 hPa 0,1 mm 5,4 km/h (2 Bft) SO 225 0 min 0 W/m 4,2 C 4,5 C 5,4 km/h (2 Bft)
18/04/2012 00:40 5,4 C 91 % 1005,7 hPa 0,0 mm 8,6 km/h (2 Bft) SO 225 0 min 0 W/m 4,1 C 3,5 C 11,9 km/h (2 Bft)
18/04/2012 00:50 5,4 C 91 % 1005,6 hPa 0,0 mm 7,9 km/h (2 Bft) SO 225 0 min 0 W/m 4,1 C 3,6 C 7,9 km/h (2 Bft)
18/04/2012 01:00 5,4 C 91 % 1005,5 hPa 0,0 mm 6,1 km/h (2 Bft) SO 225 0 min 0 W/m 4,1 C 4,2 C 6,5 km/h (2 Bft)
18/04/2012 01:10 5,5 C 92 % 1005,4 hPa 0,0 mm 7,9 km/h (2 Bft) SO 225 0 min 0 W/m 4,3 C 3,7 C 11,5 km/h (2 Bft)
18/04/2012 01:20 5,4 C 91 % 1005,3 hPa 0,0 mm 4,7 km/h (1 Bft) SO 225 0 min 0 W/m 4,1 C 4,7 C 6,5 km/h (2 Bft)
18/04/2012 01:30 5,4 C 92 % 1005,2 hPa 0,0 mm 6,5 km/h (2 Bft) SO 225 0 min 0 W/m 4,2 C 4,0 C 6,5 km/h (2 Bft)
18/04/2012 01:40 5,4 C 92 % 1005,1 hPa 0,0 mm 7,6 km/h (2 Bft) SO 225 0 min 0 W/m 4,2 C 3,7 C 9,7 km/h (2 Bft)
18/04/2012 01:50 5,5 C 92 % 1005,0 hPa 0,0 mm 4,7 km/h (1 Bft) SO 225 0 min 0 W/m 4,3 C 4,8 C 8,3 km/h (2 Bft)
18/04/2012 02:00 5,5 C 91 % 1004,8 hPa 0,0 mm 3,2 km/h (1 Bft) S-SO 202 0 min 0 W/m 4,2 C 5,5 C 4,0 km/h (1 Bft)
18/04/2012 02:10 5,5 C 91 % 1004,6 hPa 0,0 mm 8,6 km/h (2 Bft) S-SO 202 0 min 0 W/m 4,2 C 3,6 C 8,6 km/h (2 Bft)
18/04/2012 02:20 5,4 C 91 % 1004,2 hPa 0,0 mm 6,1 km/h (2 Bft) S-SO 202 0 min 0 W/m 4,1 C 4,2 C 6,5 km/h (2 Bft)
18/04/2012 02:30 5,4 C 91 % 1004,1 hPa 0,0 mm 5,4 km/h (2 Bft) S-SO 202 0 min 0 W/m 4,1 C 4,4 C 5,4 km/h (2 Bft)
18/04/2012 02:40 5,4 C 92 % 1004,0 hPa 0,0 mm 5,0 km/h (1 Bft) SO 225 0 min 0 W/m 4,2 C 4,5 C 7,6 km/h (2 Bft)
18/04/2012 02:50 5,5 C 92 % 1003,8 hPa 0,0 mm 3,6 km/h (1 Bft) O-SO 247 0 min 0 W/m 4,3 C 5,5 C 9,4 km/h (2 Bft)
18/04/2012 03:02 5,6 C 92 % 1003,8 hPa 0,1 mm 5,4 km/h (2 Bft) SO 225 0 min 0 W/m 4,4 C 4,6 C 8,3 km/h (2 Bft)
18/04/2012 03:10 5,6 C 92 % 1003,4 hPa 0,1 mm 2,9 km/h (1 Bft) SO 225 0 min 0 W/m 4,4 C 5,6 C 6,1 km/h (2 Bft)
18/04/2012 03:20 5,6 C 92 % 1003,1 hPa 0,0 mm 3,6 km/h (1 Bft) SO 225 0 min 0 W/m 4,4 C 5,6 C 6,1 km/h (2 Bft)
18/04/2012 03:30 5,6 C 92 % 1002,9 hPa 0,0 mm 3,6 km/h (1 Bft) SO 225 0 min 0 W/m 4,4 C 5,6 C 6,5 km/h (2 Bft)
18/04/2012 03:40 5,6 C 92 % 1002,7 hPa 0,0 mm 5,0 km/h (1 Bft) SO 225 0 min 0 W/m 4,4 C 4,8 C 7,9 km/h (2 Bft)
18/04/2012 03:50 5,5 C 92 % 1002,7 hPa 0,0 mm 8,3 km/h (2 Bft) SO 225 0 min 0 W/m 4,3 C 3,6 C 10,1 km/h (2 Bft)
18/04/2012 04:00 5,6 C 92 % 1002,4 hPa 0,0 mm 7,6 km/h (2 Bft) O-SO 247 0 min 0 W/m 4,4 C 3,9 C 11,5 km/h (2 Bft)
18/04/2012 04:10 5,7 C 93 % 1002,2 hPa 0,1 mm 9,7 km/h (2 Bft) S-SO 202 0 min 0 W/m 4,7 C 3,6 C 9,7 km/h (2 Bft)
18/04/2012 04:20 5,8 C 92 % 1002,0 hPa 0,0 mm 12,6 km/h (3 Bft) S-SO 202 0 min 0 W/m 4,6 C 3,1 C 20,5 km/h (4 Bft)
18/04/2012 04:30 5,8 C 92 % 1002,0 hPa 0,0 mm 10,8 km/h (2 Bft) SO 225 0 min 0 W/m 4,6 C 3,5 C 16,2 km/h (3 Bft)
18/04/2012 04:40 5,9 C 92 % 1002,1 hPa 0,0 mm 7,2 km/h (2 Bft) SO 225 0 min 0 W/m 4,7 C 4,4 C 10,8 km/h (2 Bft)
18/04/2012 04:50 5,9 C 92 % 1002,0 hPa 0,1 mm 8,6 km/h (2 Bft) SO 225 0 min 0 W/m 4,7 C 4,0 C 15,1 km/h (3 Bft)
18/04/2012 05:00 5,9 C 92 % 1001,9 hPa 0,1 mm 6,8 km/h (2 Bft) O-SO 247 0 min 0 W/m 4,7 C 4,5 C 11,2 km/h (2 Bft)
18/04/2012 05:10 6,0 C 92 % 1001,7 hPa 0,0 mm 9,4 km/h (2 Bft) SO 225 0 min 0 W/m 4,8 C 4,0 C 18,0 km/h (3 Bft)
18/04/2012 05:20 6,0 C 92 % 1001,4 hPa 0,0 mm 7,2 km/h (2 Bft) SO 225 0 min 0 W/m 4,8 C 4,5 C 8,3 km/h (2 Bft)
18/04/2012 05:30 6,0 C 91 % 1001,3 hPa 0,0 mm 11,2 km/h (2 Bft) SO 225 0 min 0 W/m 4,6 C 3,6 C 13,3 km/h (3 Bft)
18/04/2012 05:40 5,9 C 90 % 1001,0 hPa 0,0 mm 7,9 km/h (2 Bft) S-SO 202 0 min 0 W/m 4,4 C 4,2 C 12,6 km/h (3 Bft)
18/04/2012 05:50 5,9 C 90 % 1000,9 hPa 0,0 mm 12,2 km/h (2 Bft) S 180 0 min 0 W/m 4,4 C 3,3 C 19,8 km/h (3 Bft)
18/04/2012 06:00 5,8 C 90 % 1000,8 hPa 0,0 mm 10,4 km/h (2 Bft) S-SO 202 0 min 0 W/m 4,3 C 3,5 C 16,6 km/h (3 Bft)
18/04/2012 06:10 5,8 C 90 % 1000,5 hPa 0,0 mm 8,3 km/h (2 Bft) SO 225 0 min 0 W/m 4,3 C 4,0 C 9,0 km/h (2 Bft)
18/04/2012 06:20 5,7 C 90 % 1000,4 hPa 0,0 mm 7,6 km/h (2 Bft) SO 225 0 min 0 W/m 4,2 C 4,1 C 16,2 km/h (3 Bft)
18/04/2012 06:30 5,7 C 90 % 1000,4 hPa 0,0 mm 7,6 km/h (2 Bft) S-SO 202 0 min 0 W/m 4,2 C 4,1 C 15,1 km/h (3 Bft)
18/04/2012 06:40 5,8 C 90 % 1000,4 hPa 0,0 mm 6,5 km/h (2 Bft) S-SO 202 0 min 0 W/m 4,3 C 4,5 C 9,0 km/h (2 Bft)
18/04/2012 06:50 5,8 C 91 % 1000,1 hPa 0,0 mm 11,9 km/h (2 Bft) S-SO 202 0 min 0 W/m 4,4 C 3,2 C 16,2 km/h (3 Bft)
18/04/2012 07:00 5,8 C 90 % 1000,1 hPa 0,0 mm 9,7 km/h (2 Bft) SO 225 0 min 0 W/m 4,3 C 3,7 C 14,0 km/h (3 Bft)
18/04/2012 07:10 5,8 C 90 % 1000,0 hPa 0,0 mm 6,8 km/h (2 Bft) SO 225 0 min 0 W/m 4,3 C 4,4 C 8,6 km/h (2 Bft)
18/04/2012 07:20 5,8 C 90 % 1000,0 hPa 0,0 mm 11,2 km/h (2 Bft) S 180 2 min 0 W/m 4,3 C 3,4 C 15,1 km/h (3 Bft)
18/04/2012 07:30 5,7 C 90 % 1000,0 hPa 0,0 mm 9,0 km/h (2 Bft) SO 225 2 min 0 W/m 4,2 C 3,7 C 19,4 km/h (3 Bft)
18/04/2012 07:40 5,8 C 90 % 999,9 hPa 0,0 mm 9,4 km/h (2 Bft) S 180 2 min 0 W/m 4,3 C 3,7 C 15,1 km/h (3 Bft)
18/04/2012 07:50 5,8 C 90 % 999,6 hPa 0,0 mm 9,4 km/h (2 Bft) SO 225 2 min 0 W/m 4,3 C 3,7 C 12,6 km/h (3 Bft)
18/04/2012 08:00 5,8 C 90 % 999,6 hPa 0,0 mm 8,6 km/h (2 Bft) SO 225 2 min 0 W/m 4,3 C 3,9 C 9,4 km/h (2 Bft)
18/04/2012 08:10 5,9 C 90 % 999,6 hPa 0,0 mm 5,4 km/h (2 Bft) S-SO 202 2 min 0 W/m 4,4 C 5,0 C 7,6 km/h (2 Bft)
18/04/2012 08:20 5,9 C 89 % 999,4 hPa 0,0 mm 9,4 km/h (2 Bft) S-SO 202 2 min 0 W/m 4,2 C 3,9 C 14,8 km/h (3 Bft)
18/04/2012 08:30 6,2 C 89 % 999,4 hPa 0,0 mm 8,6 km/h (2 Bft) SO 225 2 min 0 W/m 4,5 C 4,4 C 10,1 km/h (2 Bft)
18/04/2012 08:40 6,4 C 89 % 999,2 hPa 0,0 mm 9,0 km/h (2 Bft) S-SO 202 2 min 0 W/m 4,7 C 4,5 C 15,8 km/h (3 Bft)
18/04/2012 08:50 6,6 C 88 % 999,0 hPa 0,0 mm 7,6 km/h (2 Bft) SO 225 2 min 0 W/m 4,8 C 5,1 C 9,7 km/h (2 Bft)
18/04/2012 09:00 7,0 C 88 % 999,0 hPa 0,0 mm 10,8 km/h (2 Bft) S-SO 202 2 min 0 W/m 5,2 C 4,9 C 13,3 km/h (3 Bft)
18/04/2012 09:10 7,1 C 88 % 999,0 hPa 0,0 mm 8,3 km/h (2 Bft) SO 225 2 min 0 W/m 5,2 C 5,5 C 9,7 km/h (2 Bft)
18/04/2012 09:20 7,2 C 87 % 998,7 hPa 0,0 mm 9,7 km/h (2 Bft) SE 135 2 min 0 W/m 5,2 C 5,3 C 11,5 km/h (2 Bft)
18/04/2012 09:30 7,4 C 88 % 998,5 hPa 0,0 mm 11,2 km/h (2 Bft) S 180 2 min 0 W/m 5,5 C 5,3 C 20,9 km/h (4 Bft)
18/04/2012 09:40 7,8 C 87 % 998,5 hPa 0,0 mm 9,7 km/h (2 Bft) S-SO 202 2 min 0 W/m 5,8 C 6,1 C 15,8 km/h (3 Bft)
18/04/2012 09:50 7,8 C 85 % 998,4 hPa 0,0 mm 12,2 km/h (2 Bft) S 180 2 min 0 W/m 5,4 C 5,6 C 19,4 km/h (3 Bft)
18/04/2012 10:00 7,8 C 85 % 998,4 hPa 0,0 mm 14,4 km/h (3 Bft) SO 225 2 min 0 W/m 5,4 C 5,3 C 22,7 km/h (4 Bft)
18/04/2012 10:10 7,9 C 83 % 998,3 hPa 0,0 mm 15,8 km/h (3 Bft) S 180 2 min 0 W/m 5,2 C 5,2 C 24,5 km/h (4 Bft)
18/04/2012 10:20 8,1 C 84 % 998,2 hPa 0,0 mm 15,8 km/h (3 Bft) SO 225 2 min 0 W/m 5,6 C 5,5 C 15,8 km/h (3 Bft)
18/04/2012 10:30 8,4 C 81 % 998,0 hPa 0,0 mm 9,0 km/h (2 Bft) O-SO 247 2 min 0 W/m 5,3 C 6,9 C 13,3 km/h (3 Bft)
18/04/2012 10:40 8,5 C 81 % 997,9 hPa 0,0 mm 14,4 km/h (3 Bft) SO 225 2 min 0 W/m 5,4 C 6,1 C 22,3 km/h (4 Bft)
18/04/2012 10:50 8,3 C 82 % 997,9 hPa 0,0 mm 14,8 km/h (3 Bft) SO 225 2 min 0 W/m 5,4 C 5,8 C 22,3 km/h (4 Bft)
18/04/2012 11:00 8,0 C 85 % 997,9 hPa 0,0 mm 15,8 km/h (3 Bft) S-SO 202 2 min 0 W/m 5,6 C 5,3 C 15,8 km/h (3 Bft)
18/04/2012 11:10 8,6 C 82 % 997,7 hPa 0,0 mm 16,6 km/h (3 Bft) S-SO 202 2 min 0 W/m 5,7 C 6,0 C 23,0 km/h (4 Bft)
18/04/2012 11:20 9,3 C 79 % 997,5 hPa 0,0 mm 12,6 km/h (3 Bft) S 180 2 min 0 W/m 5,8 C 7,4 C 13,0 km/h (3 Bft)
18/04/2012 11:30 9,2 C 80 % 997,5 hPa 0,0 mm 12,6 km/h (3 Bft) S-SO 202 2 min 0 W/m 5,9 C 7,3 C 16,9 km/h (3 Bft)
18/04/2012 11:40 9,2 C 80 % 997,3 hPa 0,1 mm 16,2 km/h (3 Bft) SO 225 2 min 0 W/m 5,9 C 6,8 C 16,2 km/h (3 Bft)
18/04/2012 11:50 9,4 C 78 % 997,3 hPa 0,0 mm 14,0 km/h (3 Bft) S 180 2 min 0 W/m 5,8 C 7,3 C 15,1 km/h (3 Bft)
18/04/2012 12:00 9,4 C 78 % 997,2 hPa 0,0 mm 10,8 km/h (2 Bft) SO 225 2 min 0 W/m 5,8 C 7,8 C 14,8 km/h (3 Bft)
18/04/2012 12:10 9,1 C 80 % 997,1 hPa 0,1 mm 8,6 km/h (2 Bft) SO 225 2 min 0 W/m 5,8 C 7,8 C 12,6 km/h (3 Bft)
18/04/2012 12:20 8,6 C 84 % 996,9 hPa 0,0 mm 7,2 km/h (2 Bft) O-SO 247 2 min 0 W/m 6,1 C 7,5 C 12,6 km/h (3 Bft)
18/04/2012 12:30 8,4 C 86 % 996,8 hPa 0,1 mm 9,0 km/h (2 Bft) SO 225 2 min 0 W/m 6,2 C 6,9 C 11,9 km/h (2 Bft)
18/04/2012 12:40 8,3 C 86 % 996,7 hPa 0,0 mm 13,0 km/h (3 Bft) O 270 2 min 0 W/m 6,1 C 6,1 C 15,8 km/h (3 Bft)
18/04/2012 12:50 8,9 C 87 % 996,4 hPa 0,0 mm 13,0 km/h (3 Bft) S-SO 202 2 min 0 W/m 6,9 C 6,8 C 22,7 km/h (4 Bft)
18/04/2012 13:00 9,1 C 85 % 996,3 hPa 0,0 mm 9,0 km/h (2 Bft) S-SO 202 2 min 0 W/m 6,7 C 7,7 C 14,4 km/h (3 Bft)
18/04/2012 13:10 9,5 C 82 % 996,0 hPa 0,0 mm 12,2 km/h (2 Bft) S-SO 202 2 min 0 W/m 6,6 C 7,7 C 16,2 km/h (3 Bft)
18/04/2012 13:20 10,1 C 80 % 995,8 hPa 0,0 mm 11,5 km/h (2 Bft) S-SO 202 2 min 0 W/m 6,8 C 10,1 C 13,0 km/h (3 Bft)
18/04/2012 13:30 10,4 C 78 % 995,6 hPa 0,0 mm 10,4 km/h (2 Bft) SO 225 2 min 0 W/m 6,7 C 10,4 C 13,3 km/h (3 Bft)
18/04/2012 13:40 10,2 C 79 % 995,5 hPa 0,0 mm 18,7 km/h (3 Bft) O-SO 247 2 min 0 W/m 6,7 C 10,2 C 27,0 km/h (5 Bft)
18/04/2012 13:50 10,1 C 78 % 995,5 hPa 0,1 mm 11,5 km/h (2 Bft) SO 225 2 min 0 W/m 6,4 C 10,1 C 14,0 km/h (3 Bft)
18/04/2012 14:00 10,3 C 80 % 995,5 hPa 0,0 mm 15,8 km/h (3 Bft) SO 225 2 min 0 W/m 7,0 C 10,3 C 18,0 km/h (3 Bft)
18/04/2012 14:10 10,3 C 78 % 995,2 hPa 0,0 mm 10,4 km/h (2 Bft) SO 225 2 min 0 W/m 6,6 C 10,3 C 13,7 km/h (3 Bft)
18/04/2012 14:20 10,3 C 78 % 995,0 hPa 0,0 mm 14,0 km/h (3 Bft) SO 225 2 min 0 W/m 6,6 C 10,3 C 14,4 km/h (3 Bft)
18/04/2012 14:30 11,0 C 78 % 995,0 hPa 0,0 mm 15,8 km/h (3 Bft) O-SO 247 2 min 0 W/m 7,3 C 11,0 C 20,9 km/h (4 Bft)
18/04/2012 14:40 10,6 C 76 % 995,2 hPa 0,1 mm 15,8 km/h (3 Bft) O-SO 247 2 min 0 W/m 6,5 C 10,6 C 20,9 km/h (4 Bft)
18/04/2012 14:50 9,6 C 82 % 994,9 hPa 0,2 mm 9,0 km/h (2 Bft) S-SO 202 2 min 0 W/m 6,7 C 8,3 C 13,3 km/h (3 Bft)
18/04/2012 15:00 9,5 C 85 % 994,8 hPa 0,0 mm 9,7 km/h (2 Bft) S-SO 202 2 min 0 W/m 7,1 C 8,1 C 20,9 km/h (4 Bft)
18/04/2012 15:10 9,6 C 84 % 994,4 hPa 0,0 mm 13,0 km/h (3 Bft) S-SO 202 2 min 0 W/m 7,0 C 7,7 C 17,3 km/h (3 Bft)
18/04/2012 15:20 9,9 C 83 % 994,4 hPa 0,0 mm 14,4 km/h (3 Bft) S-SO 202 2 min 0 W/m 7,2 C 7,9 C 20,5 km/h (4 Bft)
18/04/2012 15:30 10,3 C 81 % 994,2 hPa 0,0 mm 10,4 km/h (2 Bft) SO 225 2 min 0 W/m 7,2 C 10,3 C 15,8 km/h (3 Bft)
18/04/2012 15:40 10,4 C 78 % 994,0 hPa 0,1 mm 14,0 km/h (3 Bft) SO 225 2 min 0 W/m 6,7 C 10,4 C 17,6 km/h (3 Bft)
18/04/2012 15:50 10,5 C 80 % 993,7 hPa 0,0 mm 10,1 km/h (2 Bft) SO 225 2 min 0 W/m 7,2 C 10,5 C 20,2 km/h (4 Bft)
18/04/2012 16:00 10,6 C 79 % 993,6 hPa 0,0 mm 15,8 km/h (3 Bft) S-SO 202 2 min 0 W/m 7,1 C 10,6 C 22,0 km/h (4 Bft)
18/04/2012 16:10 10,1 C 81 % 993,4 hPa 0,1 mm 21,2 km/h (4 Bft) SO 225 2 min 0 W/m 7,0 C 10,1 C 24,8 km/h (4 Bft)
18/04/2012 16:20 9,6 C 80 % 993,5 hPa 0,0 mm 14,0 km/h (3 Bft) O-SO 247 2 min 0 W/m 6,3 C 7,5 C 17,3 km/h (3 Bft)
18/04/2012 16:30 9,2 C 82 % 993,5 hPa 0,1 mm 20,5 km/h (4 Bft) S-SO 202 2 min 0 W/m 6,3 C 6,3 C 23,4 km/h (4 Bft)
18/04/2012 16:40 8,6 C 84 % 993,3 hPa 0,0 mm 8,6 km/h (2 Bft) S-SO 202 2 min 0 W/m 6,1 C 7,2 C 11,5 km/h (2 Bft)
18/04/2012 16:50 8,8 C 84 % 993,1 hPa 0,0 mm 10,8 km/h (2 Bft) SO 225 2 min 0 W/m 6,2 C 7,1 C 16,6 km/h (3 Bft)
18/04/2012 17:00 8,9 C 81 % 993,2 hPa 0,0 mm 10,8 km/h (2 Bft) S 180 2 min 0 W/m 5,8 C 7,2 C 17,3 km/h (3 Bft)
18/04/2012 17:10 8,6 C 83 % 993,2 hPa 0,1 mm 9,4 km/h (2 Bft) SO 225 2 min 0 W/m 5,9 C 7,1 C 16,9 km/h (3 Bft)
18/04/2012 17:20 8,1 C 86 % 993,0 hPa 0,2 mm 11,5 km/h (2 Bft) SO 225 2 min 0 W/m 5,9 C 6,1 C 16,9 km/h (3 Bft)
18/04/2012 17:30 8,1 C 88 % 992,8 hPa 0,0 mm 10,8 km/h (2 Bft) S-SO 202 2 min 0 W/m 6,2 C 6,2 C 14,4 km/h (3 Bft)
18/04/2012 17:40 8,5 C 88 % 992,7 hPa 0,0 mm 12,2 km/h (2 Bft) SO 225 2 min 0 W/m 6,6 C 6,5 C 16,9 km/h (3 Bft)
18/04/2012 17:50 8,8 C 87 % 992,6 hPa 0,0 mm 11,9 km/h (2 Bft) S 180 2 min 0 W/m 6,8 C 6,9 C 18,4 km/h (3 Bft)
18/04/2012 18:00 8,8 C 86 % 992,6 hPa 0,0 mm 13,7 km/h (3 Bft) SO 225 2 min 0 W/m 6,6 C 6,6 C 20,9 km/h (4 Bft)
18/04/2012 18:10 8,6 C 87 % 992,6 hPa 0,2 mm 14,8 km/h (3 Bft) O-SO 247 2 min 0 W/m 6,6 C 6,2 C 18,4 km/h (3 Bft)
18/04/2012 18:20 8,4 C 88 % 992,7 hPa 0,0 mm 10,8 km/h (2 Bft) SO 225 2 min 0 W/m 6,5 C 6,6 C 22,3 km/h (4 Bft)
18/04/2012 18:30 8,1 C 88 % 992,6 hPa 0,1 mm 9,4 km/h (2 Bft) SO 225 2 min 0 W/m 6,2 C 6,5 C 13,0 km/h (3 Bft)
18/04/2012 18:40 7,6 C 88 % 992,6 hPa 0,2 mm 13,7 km/h (3 Bft) SO 225 2 min 0 W/m 5,7 C 5,1 C 18,4 km/h (3 Bft)
18/04/2012 18:50 7,5 C 89 % 992,5 hPa 0,0 mm 15,5 km/h (3 Bft) S-SO 202 2 min 0 W/m 5,8 C 4,8 C 21,6 km/h (4 Bft)
18/04/2012 19:00 7,7 C 89 % 992,4 hPa 0,0 mm 9,7 km/h (2 Bft) SO 225 2 min 0 W/m 6,0 C 5,9 C 11,2 km/h (2 Bft)
18/04/2012 19:10 7,8 C 89 % 992,3 hPa 0,0 mm 11,5 km/h (2 Bft) S-SO 202 2 min 0 W/m 6,1 C 5,7 C 11,5 km/h (2 Bft)
18/04/2012 19:20 7,8 C 88 % 992,2 hPa 0,0 mm 17,3 km/h (3 Bft) S-SO 202 2 min 0 W/m 5,9 C 4,9 C 17,3 km/h (3 Bft)
18/04/2012 19:30 7,8 C 88 % 992,2 hPa 0,0 mm 10,8 km/h (2 Bft) S-SO 202 2 min 0 W/m 5,9 C 5,9 C 18,4 km/h (3 Bft)
18/04/2012 19:40 7,8 C 88 % 992,0 hPa 0,0 mm 12,2 km/h (2 Bft) S-SO 202 2 min 0 W/m 5,9 C 5,6 C 14,4 km/h (3 Bft)
18/04/2012 19:50 7,8 C 88 % 991,9 hPa 0,0 mm 11,2 km/h (2 Bft) S-SO 202 2 min 0 W/m 5,9 C 5,8 C 15,8 km/h (3 Bft)
18/04/2012 20:00 7,8 C 88 % 992,0 hPa 0,0 mm 14,4 km/h (3 Bft) S-SO 202 2 min 0 W/m 5,9 C 5,3 C 14,4 km/h (3 Bft)
18/04/2012 20:10 7,6 C 89 % 992,0 hPa 0,0 mm 10,8 km/h (2 Bft) S-SO 202 2 min 0 W/m 5,9 C 5,6 C 13,7 km/h (3 Bft)
18/04/2012 20:20 7,5 C 89 % 991,9 hPa 0,0 mm 9,0 km/h (2 Bft) S-SO 202 2 min 0 W/m 5,8 C 5,8 C 11,5 km/h (2 Bft)
18/04/2012 20:30 7,5 C 88 % 991,8 hPa 0,0 mm 8,6 km/h (2 Bft) SO 225 2 min 0 W/m 5,6 C 5,9 C 11,9 km/h (2 Bft)
18/04/2012 20:40 7,4 C 89 % 991,8 hPa 0,0 mm 7,6 km/h (2 Bft) S-SO 202 0 min 0 W/m 5,7 C 6,0 C 8,3 km/h (2 Bft)
18/04/2012 20:50 7,3 C 89 % 991,8 hPa 0,0 mm 8,3 km/h (2 Bft) SO 225 0 min 0 W/m 5,6 C 5,8 C 11,2 km/h (2 Bft)
18/04/2012 21:00 7,4 C 89 % 991,9 hPa 0,0 mm 9,4 km/h (2 Bft) SO 225 0 min 0 W/m 5,7 C 5,6 C 12,6 km/h (3 Bft)
18/04/2012 21:10 7,4 C 90 % 992,0 hPa 0,0 mm 7,2 km/h (2 Bft) SO 225 0 min 0 W/m 5,9 C 6,1 C 13,0 km/h (3 Bft)
18/04/2012 21:20 7,5 C 89 % 991,9 hPa 0,0 mm 11,2 km/h (2 Bft) S 180 0 min 0 W/m 5,8 C 5,4 C 17,3 km/h (3 Bft)
18/04/2012 21:30 7,6 C 89 % 992,0 hPa 0,0 mm 9,7 km/h (2 Bft) SO 225 0 min 0 W/m 5,9 C 5,8 C 9,7 km/h (2 Bft)
18/04/2012 21:40 7,6 C 88 % 992,3 hPa 0,1 mm 10,8 km/h (2 Bft) SO 225 0 min 0 W/m 5,7 C 5,6 C 14,8 km/h (3 Bft)
18/04/2012 21:50 7,2 C 88 % 992,2 hPa 0,1 mm 6,8 km/h (2 Bft) O-SO 247 0 min 0 W/m 5,3 C 6,0 C 12,6 km/h (3 Bft)
18/04/2012 22:00 6,9 C 87 % 992,3 hPa 0,0 mm 9,4 km/h (2 Bft) SO 225 0 min 0 W/m 4,9 C 5,1 C 13,7 km/h (3 Bft)
18/04/2012 22:10 6,8 C 88 % 992,4 hPa 0,0 mm 5,8 km/h (2 Bft) SO 225 0 min 0 W/m 5,0 C 5,9 C 8,3 km/h (2 Bft)
18/04/2012 22:20 6,6 C 89 % 992,4 hPa 0,0 mm 3,6 km/h (1 Bft) SO 225 0 min 0 W/m 4,9 C 6,6 C 7,2 km/h (2 Bft)
18/04/2012 22:30 6,8 C 91 % 992,4 hPa 0,0 mm 9,7 km/h (2 Bft) S-SO 202 0 min 0 W/m 5,4 C 4,9 C 16,9 km/h (3 Bft)
18/04/2012 22:40 7,1 C 91 % 992,4 hPa 0,0 mm 10,4 km/h (2 Bft) SO 225 0 min 0 W/m 5,7 C 5,1 C 10,4 km/h (2 Bft)
18/04/2012 22:50 7,1 C 90 % 992,4 hPa 0,0 mm 4,7 km/h (1 Bft) SO 225 0 min 0 W/m 5,6 C 6,6 C 4,7 km/h (1 Bft)
18/04/2012 23:00 7,2 C 89 % 992,5 hPa 0,0 mm 10,4 km/h (2 Bft) S-SO 202 0 min 0 W/m 5,5 C 5,2 C 14,0 km/h (3 Bft)
18/04/2012 23:10 7,3 C 89 % 992,5 hPa 0,0 mm 9,7 km/h (2 Bft) SO 225 0 min 0 W/m 5,6 C 5,5 C 14,0 km/h (3 Bft)
18/04/2012 23:20 7,4 C 88 % 992,4 hPa 0,0 mm 9,4 km/h (2 Bft) SO 225 0 min 0 W/m 5,5 C 5,6 C 11,5 km/h (2 Bft)
18/04/2012 23:30 7,3 C 87 % 992,4 hPa 0,0 mm 13,3 km/h (3 Bft) S-SO 202 0 min 0 W/m 5,3 C 4,8 C 19,8 km/h (3 Bft)
18/04/2012 23:40 7,2 C 88 % 992,3 hPa 0,0 mm 7,9 km/h (2 Bft) SO 225 0 min 0 W/m 5,3 C 5,7 C 10,4 km/h (2 Bft)
18/04/2012 23:50 7,1 C 88 % 992,4 hPa 0,0 mm 8,3 km/h (2 Bft) SO 225 0 min 0 W/m 5,2 C 5,5 C 14,0 km/h (3 Bft)
_ Min-Heure 02:40 14:40 20:50 - 03:10 - - - - 02:30 04:20 02:00
Minimum _ 5,4 C 76 % 991,8 hPa - 2,9 km/h (1 Bft) - - - - 4,1 C 3,1 C 4,0 km/h (1 Bft)
_ Max-Heure 14:30 04:10 00:00 18:40 16:10 - - 20:30 23:50 14:30 14:30 13:40
Maximum _ 11,0 C 93 % 1006,2 hPa 0,2 mm 21,2 km/h
SO (4 Bft)
- - 2 min 0 W/m 7,3 C 11,0 C 27,0 km/h
O-SO (5 Bft)
Moyenne _ 7,4 C 87 % 997,4 hPa #2,7 mm 10,1 km/h (2 Bft) SO - #2:40 h 0 W/m 5,4 C 5,9 C 14,0 km/h (3 Bft)
Saint Bonnet de Bellac- Haute Vienne - France